Location: ???? ??
(36.0534°N, 43.5630°E)
Time: 23:43:41
(UTC+00:00)

Cosmos 2327 Rocket - Pass Details

Date: 18 September 2019
Orbit: 943 x 1009 km, 83.0° (Epoch: 21 October)

Event Time Altitude Azimuth Distance (km) Brightness Sun altitude
Rises 16:01:22 0° 357° (N) 3,682 7.7 -11.3°
Reaches altitude 10° 16:03:56 10° 0° (N) 2,721 7.0 -11.8°
Maximum altitude 16:10:07 65° 82° (E) 1,053 4.4 -13.0°
Drops below altitude 10° 16:16:09 10° 164° (SSE) 2,665 6.5 -14.2°
Sets 16:18:38 0° 167° (SSE) 3,601 7.2 -14.7°
